Showing default

GAOFEN 11-05, 60249

Orbit data source: Space-Track

GAOFEN 11-05, 60249 is a payload satellite owned by Yaogan Zongti (CN) in SSO that was launched on Fri, 19 Jul 2024 UTC via a CHANG ZHENG 4B launch vehicle from the Taiyaun Space Center, China (TSC). Payload-class satellites include a variety of spacecraft equipped with specific instruments for various scientific and technological missions. These include communications satellites like Starlink; space stations such as the ISS; scientific satellites like the Hubble; Earth observation satellites from companies like Planet Labs, Umbra, and HawkEye 360; GPS; miniature CubeSats for education and research; and military/defense satellites.

Loading next visibility...
Identifier
60249, 2024-130A
Orbit
SSO
Last TLE update
8 hours ago
Origin
Manufacturer
CAST/YWZB
Mission
Operational spacecraft
Bus & Motor
JB-16, Unknown motor
Mass
~3,000 kg wet, ~3,000 kg dry
Launch date (UTC)
2024-07-19 (1 year ago)
Launch vehicle
CHANG ZHENG 4B
Launch site
Taiyaun Space Center, China (TSC)
Object type
Payload
Rocket body
Debris
Shape & HBR
Unknown
Radar Cross Section
Large (>1 m²)

Expand to show TLE details & history

TLE from 8 hours ago
0 GAOFEN 11-05
1 60249U 24130A   25186.59656030  .00004962  00000-0  21191-3 0  9995
2 60249  97.4341 263.9293 0003158 345.9929  14.1219 15.23338531 32695
Epoch: 2025-07-05T14:19Z
TLE epoch observation values (Epoch: 2025-07-05T14:19:02.809Z)
Latitude
-0.00013°
Longitude
125.33528°
Altitude
496.767 km
Speed
7.617 km/s
True Right ascension
17h 35m 43s
True Declination
0° 00' 00"
Sunlit
Object was in full shadow at epoch
Visualization orbit readout
Latitude
-77.29666°
Longitude
160.79197°
Altitude
522.526 km
Speed
7.601 km/s
Apparent Right ascension
21h 21m 34s
Apparent Declination
-59° 44' 33"
Sunlit
Object is in full shadow
Visualization observer readout
Local Sidereal Time
09:47:09
Azimuth
170.658° S
Elevation
-69.771°
Doppler factor
1
Orbital elements
Apogee altitude
494.911 km
Perigee altitude
490.572 km
Semi-major axis
6,870.879 km
Eccentricity
0.00032
Inclination
97.4341°
RAAN
263.9293°
Arg. of periapsis
345.9929°
True anomaly
Unknown
Mean anomaly
14.1219°
Eccentric anomaly
Unknown
Mean motion
3.81088 °/min
Orbital period
94.47 mins
BSTAR
0.00021191
Loading maneuver chart data...
Loading SW <> Apogee altitude chart data...
Loading historical data...
Loading historical data...
Loading historical data...
Loading historical data...
Loading historical data...
Loading historical data...
Loading historical data...
Other satellites on launch #130 in the year 2024 (2024-07-19 UTC)

GAOFEN 11-05 Visibility forecast

Observer location: undefined°, undefined°

Span
Click to sort rows by Start time (UTC) header in descending order
Start Az.
Max El. time (UTC)
Max El. Az.
Max El.
End time (UTC)
End Az.
5 mins2025-07-06 04:39:04.251Z125.767° SE2025-07-06 04:41:04.251Z81.967° E26.45°2025-07-06 04:44:04.251Z13.808° NNE
5 mins2025-07-06 17:42:04.251Z38.832° NE2025-07-06 17:44:04.251Z105.882° ESE34.604°2025-07-06 17:47:04.251Z170.61° S
|